User: anonymous   Login
Location: Caltech
(34.1382°N, 118.1253°W)
Time: 04:08:09
(UTC-07:00)
Language:

NOSS 3-4 (C) - Orbit

View from above orbital plane
View from above orbital plane
View from above satellite
View from above satellite

Ground track
Ground track

The orbit data is extracted from the following two-line orbital elements,

1 31708U 07027C   16133.86067699 0.00000000  00000-0  00000-0 0    03
2 31708  63.4030  24.0060 0156000  25.9832 334.0168 13.40707373    00
Epoch (UTC): 12 May 2016 20:39:22
Eccentricity: 0.0156000
inclination: 63.4030°
perigee height: 990 km
apogee height: 1223 km
right ascension of ascending node: 24.0060°
argument of perigee: 25.9832°
revolutions per day: 13.40707373
mean anomaly at epoch: 334.0168°
orbit number at epoch: 0

The dashed part of the orbit path shows where the satellite is in the earth's shadow,  

DLR